Regional Weather Roundup
Issued by NWS

Home | Current Version | Previous Version | Graphics & Text | Print | Product List | Glossary On
Versions: 1 2 3 4 5 6 7 8 9 10 11 12 13 14 15 16 17 18 19 20 21 22 23 24 25 26 27 28 29 30 31 32 33 34 35 36 37 38 39 40 41 42 43 44 45 46 47 48 49 50
000
ASUS43 KLOT 231609
RWRIL

ILLINOIS REGIONAL WEATHER ROUNDUP
NATIONAL WEATHER SERVICE CHICAGO/ROMEOVILLE IL
1100 AM CDT MON APR 23 2018

NOTE: "FAIR" INDICATES FEW OR NO CLOUDS BELOW 12,000 FEET WITH NO
SIGNIFICANT WEATHER AND/OR OBSTRUCTIONS TO VISIBILITY.

* THESE STATIONS ARE NOT UNDER NWS QUALITY CONTROL. THEY ALSO MAY NOT
  REPORT WEATHER SUCH AS PRECIPITATION OR FOG.

ILZ001-002-007-009-015-016-024-231700-
NORTHWEST ILLINOIS

CITY           SKY/WX    TMP DP  RH WIND       PRES   REMARKS
MOLINE         FAIR      62  29  28 NE12      30.13F
STERLING*      FAIR      62  31  31 NE12      30.16F
SAVANNA*       FAIR      61  28  28 NE9       30.17F
$$

ILZ003-004-008-010-011-017-018-231700-
NORTH CENTRAL ILLINOIS

CITY           SKY/WX    TMP DP  RH WIND       PRES   REMARKS
ROCKFORD       CLOUDY    62  28  27 NE14      30.18F
FREEPORT*      FAIR      59  29  32 NE13      30.19F
ROCHELLE*      FAIR      60  32  35 NE15      30.16F
DE KALB*       FAIR      61  32  33 NE12      30.17F
PERU*          FAIR      60  33  35 NE14      30.14F
$$

ILZ005-006-012>014-019>023-231700-
NORTHEAST ILLINOIS

CITY           SKY/WX    TMP DP  RH WIND       PRES   REMARKS
CHICAGO-OHARE  PTSUNNY   55  29  36 NE14      30.17F
CHICAGO-MIDWAY PTSUNNY   55  30  38 NE13      30.17F
AURORA         FAIR      61  30  31 NE14      30.15F
LANSING*       FAIR      51  39  61 N10       30.16F
JOLIET*        FAIR      60  32  34 N14       30.14F
WAUKEGAN       FAIR      52  28  39 NE10      30.19F
DUPAGE AIRPORT FAIR      58  30  34 NE15      30.16F
KANKAKEE*      FAIR      61  33  35 E14       30.13F
WHEELING       FAIR      54  29  38 NE10      30.21F
MORRIS*        FAIR      62  32  32 NE9G16    30.12F
ROMEOVILLE*    FAIR      59  33  37 NE14      30.14F
NORTHERLY ISL    N/A     45  32  60 NW14        N/A
$$

LMZ740>746-231700-
SOUTHERN LAKE MICHIGAN

STATION/POSITION SKY/WX   TEMP    WIND        PRES    VSBY  WAVE
                          AIR SEA DIR/SP/G                  HT/PER
                          (F)     (DEG/KT/KT) (MB)    (MI)  (FT/S)
HARRISON CRIB              41     340/ 15/ 16   N/A
BURNHAM HARBOR             45      10/ 13/ 14   N/A
CALUMET HARBOR             44     330/ 14/ 18 1021.5F
BURNS HARBOR               42     360/  4/  8 1022.0F
MICHIGAN CITY              42      30/  7/  8   N/A
ST. JOSEPH                 44 42   20/  6/  8 1022.3          1/ 3
$$

ILZ025>027-034>036-040-047-049-050-058-095>099-231700-
WEST-CENTRAL ILLINOIS

CITY           SKY/WX    TMP DP  RH WIND       PRES   REMARKS
QUINCY         CLOUDY    61  33  35 NE16G24   30.07F
GALESBURG*     FAIR      64  35  33 NE15      30.12F
MACOMB*        PTSUNNY   58  31  36 NE14      30.13S
JACKSONVILLE*  CLOUDY    57  34  42 NE14      30.06F
PITTSFIELD*    CLOUDY    60  35  38 NE12      30.07S
$$

ILZ028>032-037-038-041>044-048-051>054-059>061-231700-
CENTRAL ILLINOIS

CITY           SKY/WX    TMP DP  RH WIND       PRES   REMARKS
PONTIAC        PTSUNNY   60  33  35 E12G17    30.12F
BLOOMINGTON    CLOUDY    58  34  40 NE15      30.10F
DECATUR        CLOUDY    61  44  53 NE13G22   30.05F
PEORIA         PTSUNNY   60  34  37 NE8       30.10F
LACON*         PTSUNNY   59  33  36 NE8       30.12S
LINCOLN*       CLOUDY    59  37  44 NE9G16    30.07F
SPRINGFIELD    CLOUDY    59  38  45 NE14      30.07S
TAYLORVILLE    CLOUDY    58  45  60 NE14      30.05F
$$

ILZ033-039-045-046-055>057-062-063-231700-
EAST-CENTRAL ILLINOIS

CITY           SKY/WX    TMP DP  RH WIND       PRES   REMARKS
CHAMPAIGN      PTSUNNY   58  42  55 E10       30.06F
DANVILLE*      PTSUNNY   55  38  51 E12       30.08R
RANTOUL*       CLOUDY    58  39  49 NE13      30.07F
MATTOON        LGT RAIN  53  52  96 E10       30.05S FOG
PARIS*         LGT RAIN  54  49  82 E13       30.09S
$$

ILZ079-100>102-231700-
SOUTHWEST ILLINOIS

CITY           SKY/WX    TMP DP  RH WIND       PRES   REMARKS
ALTON          LGT RAIN  52  52 100 NE12      30.01S
BELLEVILLE     CLOUDY    55  52  88 NE12      29.97S
CAHOKIA*       CLOUDY    54  51  90 NE13G22   29.99R
SPARTA*        CLOUDY    55  55 100 E17       29.95S
$$

ILZ064>066-069>071-074>076-080>082-084>086-088>090-092>094-231700-
SOUTH-CENTRAL ILLINOIS

CITY           SKY/WX    TMP DP  RH WIND       PRES   REMARKS
CARBONDALE     LGT RAIN  56  54  93 NE12      29.91R FOG
CAIRO*         DRIZZLE   59  58  97 E9        29.87R
EFFINGHAM*     CLOUDY    52  52 100 NE7       30.04S
MARION         LGT RAIN  57  55  94 E17       29.92
MT. VERNON       N/A     54  53  97 NE12      29.97S
CENTRALIA*     CLOUDY    56  54  92 E16       29.97F
SALEM*         CLOUDY    55  52  87 E10       30.00R
METROPOLIS*    CLOUDY    61  59  94 E8        29.90R
$$

ILZ067-068-072-073-078-083-087-091-231700-
SOUTHEAST ILLINOIS

CITY           SKY/WX    TMP DP  RH WIND       PRES   REMARKS
LAWRENCEVILLE  CLOUDY    56  53  90 E17       30.02S
FLORA*         CLOUDY    56  53  87 E13       30.01S
FAIRFIELD*     CLOUDY    56  54  91 NE10      29.97S
HARRISBURG*    CLOUDY    59  56  91 E15       29.94S
ROBINSON*      CLOUDY    53  52  99 E12       30.05S
CARMI*         CLOUDY    59  56  88 E16       29.96S
$$

ABBREVIATIONS USED IN REMARKS
   TC - TEMPERATURE IN CELSIUS
  WCI - WIND CHILL INDEX
   HX - HEAT INDEX
  VSB - VISIBILITY
$$




USA.gov is the U.S. government's official web portal to all federal, state and local government web resources and services.